Overview Statistics Trail Chart Weather Telemetry Raw packets
 

This is the latest recevied weather packets stored in our database for station/object W7TRD. If no packets are shown the sender has not sent any weather packets the latest 10 day(s).

<< 20 21 22 23 24 25 26 >>
Time Temp. Humidity Pressure Rain* Wind** Luminosity Snow
1788483297 15° C 82% 1010.7 hPa 0 mm - 71 W/m² -
1788482997 15° C 82% 1010.9 hPa 0 mm - 84 W/m² -
1788482693 15° C 82% 1010.8 hPa 0 mm - 105 W/m² -
1788482393 15° C 82% 1010.9 hPa 0 mm - 104 W/m² -
1788482089 15° C 82% 1011 hPa 0 mm - 99 W/m² -
1788481784 15° C 82% 1010.9 hPa 0 mm - 94 W/m² -
1788481481 15° C 82% 1010.9 hPa 0 mm - 79 W/m² -
1788481179 15° C 82% 1011.1 hPa 0 mm - 77 W/m² -
1788480875 15° C 81% 1011 hPa 0 mm - 83 W/m² -
1788480575 15° C 81% 1010.9 hPa 0 mm - 88 W/m² -
1788480275 15° C 81% 1010.9 hPa 0 mm - 89 W/m² -
1788479970 15° C 80% 1010.8 hPa 0 mm - 88 W/m² -
1788479666 15° C 79% 1010.8 hPa 0 mm - 101 W/m² -
1788479366 15° C 81% 1010.9 hPa 0 mm - 118 W/m² -
1788479061 15° C 80% 1010.9 hPa 0 mm - 137 W/m² -
1788478758 15.56° C 79% 1011.1 hPa 0 mm - 147 W/m² -
1788478453 15.56° C 77% 1011.2 hPa 0 mm - 153 W/m² -
1788478173 16.11° C 72% 1011.1 hPa 0 mm - 176 W/m² -
1788477843 16.67° C 70% 1011.1 hPa 0 mm - 201 W/m² -
1788477542 16.67° C 69% 1011.2 hPa 0 mm - 201 W/m² -
1788477237 16.67° C 70% 1011.1 hPa 0 mm - 170 W/m² -
1788476933 16.67° C 70% 1011.2 hPa 0 mm - 162 W/m² -
1788476628 17.22° C 69% 1011.1 hPa 0 mm - 135 W/m² -
1788476324 17.22° C 69% 1011.1 hPa 0 mm - 158 W/m² -
1788476019 17.22° C 68% 1011.1 hPa 0 mm - 185 W/m² -

* Rain latest hour (hover to see other rain measurements)
** Current wind speed in m/s (hover to see current wind gust speed)